When you browse on this site, cookies collect data to enhance your experience and personalize the content and advertising you see.
Visit our Privacy Policy to learn more. By continuing to use the site, you agree to this use of cookies and data.
  • In Hungary
  • List of Countries
  • For 7 days
  • Water Temperature
  • Satellite Maps
  • Weather Map
  • News
  • Weather Widgets
  • user-avatar
    Login

    Hourly Weather Villach

    Today, 25 March, Monday

    Time Temperature Precipitation Wind Pressure Humidity
    00:00 +11°C° 0.2 mm 1 mps 718 mmHg 85%
    01:00 +10°C° 0 mm 1 mps 717 mmHg 87%
    02:00 +10°C° 0.2 mm 1 mps 717 mmHg 88%
    03:00 +9°C° 0.2 mm 1 mps 717 mmHg 89%
    04:00 +9°C° 0.2 mm 1 mps 716 mmHg 90%
    05:00 +9°C° 0.2 mm 1 mps 716 mmHg 88%
    06:00 +10°C° 0.2 mm 1 mps 716 mmHg 86%
    07:00 +10°C° 0 mm 1 mps 716 mmHg 85%
    08:00 +11°C° 0.3 mm 1 mps 716 mmHg 79%
    09:00 +13°C° 0.3 mm 1 mps 716 mmHg 74%
    10:00 +13°C° 0.3 mm 0 mps 716 mmHg 69%
    11:00 +13°C° 0.6 mm 0 mps 715 mmHg 69%
    12:00 +13°C° 0.6 mm 0 mps 715 mmHg 70%
    13:00 +14°C° 0.6 mm 0 mps 715 mmHg 70%
    14:00 +13°C° 1.8 mm 1 mps 714 mmHg 73%
    15:00 +12°C° 1.8 mm 1 mps 714 mmHg 77%
    16:00 +10°C° 1.8 mm 2 mps 714 mmHg 80%
    17:00 +9°C° 1.7 mm 2 mps 714 mmHg 79%
    18:00 +8°C° 1.7 mm 2 mps 714 mmHg 78%
    19:00 +6°C° 1.7 mm 2 mps 715 mmHg 77%
    20:00 +5°C° 0.7 mm 2 mps 716 mmHg 79%
    21:00 +5°C° 0.7 mm 2 mps 717 mmHg 81%
    22:00 +4°C° 0.7 mm 2 mps 718 mmHg 83%
    23:00 +3°C° 0.2 mm 2 mps 718 mmHg 83%

    Tomorrow, 26 March, Tuesday

    Time Temperature Precipitation Wind Pressure Humidity
    00:00 +4°C° 0.2 mm 1 mps 719 mmHg 84%
    01:00 +4°C° 0.2 mm 1 mps 719 mmHg 84%
    02:00 +3°C° 0 mm 1 mps 720 mmHg 83%
    03:00 +3°C° 0 mm 1 mps 720 mmHg 83%
    04:00 +3°C° 0 mm 1 mps 720 mmHg 82%
    05:00 +3°C° 0 mm 1 mps 720 mmHg 80%
    06:00 +3°C° 0 mm 1 mps 721 mmHg 77%
    07:00 +2°C° 0 mm 2 mps 721 mmHg 75%
    08:00 +3°C° 0 mm 2 mps 721 mmHg 68%
    09:00 +5°C° 0 mm 2 mps 722 mmHg 60%
    10:00 +6°C° 0 mm 2 mps 722 mmHg 52%
    11:00 +7°C° 0 mm 3 mps 722 mmHg 49%
    12:00 +8°C° 0 mm 3 mps 722 mmHg 46%
    13:00 +9°C° 0 mm 3 mps 722 mmHg 42%
    14:00 +9°C° 0 mm 2 mps 722 mmHg 43%
    15:00 +9°C° 0 mm 2 mps 721 mmHg 44%
    16:00 +9°C° 0 mm 2 mps 721 mmHg 45%
    17:00 +7°C° 0 mm 2 mps 722 mmHg 53%
    18:00 +5°C° 0 mm 2 mps 722 mmHg 60%
    19:00 +4°C° 0 mm 1 mps 722 mmHg 68%
    20:00 +3°C° 0 mm 1 mps 723 mmHg 71%
    21:00 +3°C° 0 mm 1 mps 723 mmHg 73%
    22:00 +2°C° 0 mm 1 mps 724 mmHg 76%
    23:00 +2°C° 0 mm 1 mps 724 mmHg 76%

    Day after tomorrow, 27 March, Wednesday

    Time Temperature Precipitation Wind Pressure Humidity
    00:00 +1°C° 0 mm 1 mps 724 mmHg 77%
    01:00 +1°C° 0 mm 1 mps 724 mmHg 78%
    02:00 +1°C° 0 mm 1 mps 724 mmHg 78%
    03:00 +1°C° 0 mm 1 mps 724 mmHg 78%
    04:00 +1°C° 0 mm 1 mps 724 mmHg 77%
    05:00 +2°C° 0 mm 1 mps 724 mmHg 75%
    06:00 +2°C° 0 mm 1 mps 725 mmHg 73%
    07:00 +3°C° 0 mm 1 mps 725 mmHg 70%
    08:00 +5°C° 0 mm 1 mps 725 mmHg 63%
    09:00 +7°C° 0 mm 1 mps 725 mmHg 55%
    10:00 +8°C° 0 mm 1 mps 725 mmHg 48%
    11:00 +10°C° 0 mm 1 mps 725 mmHg 46%
    12:00 +11°C° 0 mm 1 mps 725 mmHg 44%
    13:00 +12°C° 0 mm 1 mps 725 mmHg 42%
    14:00 +12°C° 0 mm 1 mps 725 mmHg 43%
    15:00 +12°C° 0 mm 2 mps 725 mmHg 45%
    16:00 +10°C° 0 mm 2 mps 724 mmHg 47%
    17:00 +9°C° 0 mm 1 mps 725 mmHg 55%
    18:00 +7°C° 0 mm 1 mps 725 mmHg 63%
    19:00 +5°C° 0 mm 1 mps 725 mmHg 72%
    20:00 +4°C° 0 mm 1 mps 726 mmHg 74%
    21:00 +4°C° 0 mm 1 mps 726 mmHg 77%
    22:00 +3°C° 0 mm 1 mps 727 mmHg 80%
    23:00 +3°C° 0 mm 1 mps 727 mmHg 81%

    28 March, Thursday

    Time Temperature Precipitation Wind Pressure Humidity
    00:00 +2°C° 0 mm 1 mps 727 mmHg 81%
    01:00 +2°C° 0 mm 1 mps 727 mmHg 82%
    02:00 +2°C° 0 mm 1 mps 727 mmHg 81%
    03:00 +2°C° 0 mm 1 mps 727 mmHg 80%
    04:00 +2°C° 0 mm 1 mps 727 mmHg 79%
    05:00 +3°C° 0 mm 1 mps 727 mmHg 76%
    06:00 +3°C° 0 mm 1 mps 727 mmHg 73%
    07:00 +4°C° 0 mm 1 mps 727 mmHg 69%
    08:00 +6°C° 0 mm 1 mps 727 mmHg 63%
    09:00 +9°C° 0 mm 1 mps 727 mmHg 56%
    10:00 +12°C° 0 mm 1 mps 727 mmHg 49%
    11:00 +12°C° 0 mm 1 mps 727 mmHg 48%
    12:00 +13°C° 0 mm 2 mps 727 mmHg 46%
    13:00 +14°C° 0 mm 2 mps 727 mmHg 44%
    14:00 +14°C° 0 mm 2 mps 727 mmHg 45%
    15:00 +14°C° 0 mm 1 mps 726 mmHg 47%
    16:00 +14°C° 0 mm 1 mps 726 mmHg 49%
    17:00 +11°C° 0 mm 1 mps 726 mmHg 58%
    18:00 +9°C° 0 mm 1 mps 726 mmHg 67%
    19:00 +7°C° 0 mm 1 mps 726 mmHg 76%
    20:00 +6°C° 0 mm 1 mps 727 mmHg 78%
    21:00 +6°C° 0 mm 1 mps 727 mmHg 81%
    22:00 +5°C° 0 mm 1 mps 728 mmHg 84%
    23:00 +5°C° 0 mm 1 mps 728 mmHg 85%

    29 March, Friday

    Time Temperature Precipitation Wind Pressure Humidity
    00:00 +4°C° 0 mm 1 mps 728 mmHg 87%
    01:00 +4°C° 0 mm 1 mps 728 mmHg 88%
    02:00 +4°C° 0 mm 1 mps 728 mmHg 89%
    03:00 +4°C° 0 mm 1 mps 728 mmHg 89%
    04:00 +4°C° 0 mm 1 mps 728 mmHg 90%
    05:00 +4°C° 0 mm 1 mps 728 mmHg 87%
    06:00 +5°C° 0 mm 1 mps 728 mmHg 85%
    07:00 +5°C° 0 mm 1 mps 728 mmHg 83%
    08:00 +8°C° 0 mm 1 mps 729 mmHg 73%
    09:00 +10°C° 0 mm 1 mps 729 mmHg 63%
    10:00 +12°C° 0 mm 1 mps 729 mmHg 54%
    11:00 +13°C° 0 mm 1 mps 728 mmHg 51%
    12:00 +14°C° 0 mm 1 mps 728 mmHg 49%
    13:00 +14°C° 0 mm 1 mps 728 mmHg 47%
    14:00 +14°C° 0 mm 1 mps 727 mmHg 47%
    15:00 +14°C° 0 mm 1 mps 727 mmHg 48%
    16:00 +14°C° 0 mm 1 mps 727 mmHg 48%
    17:00 +12°C° 0 mm 1 mps 727 mmHg 57%
    18:00 +9°C° 0 mm 1 mps 727 mmHg 66%
    19:00 +6°C° 0 mm 0 mps 727 mmHg 75%
    20:00 +6°C° 0 mm 0 mps 727 mmHg 77%
    21:00 +5°C° 0 mm 0 mps 727 mmHg 79%
    22:00 +5°C° 0 mm 0 mps 727 mmHg 81%
    23:00 +4°C° 0 mm 0 mps 727 mmHg 81%

    30 March, Saturday

    Time Temperature Precipitation Wind Pressure Humidity
    00:00 +4°C° 0 mm 0 mps 727 mmHg 82%
    01:00 +4°C° 0 mm 0 mps 727 mmHg 83%
    02:00 +4°C° 0 mm 0 mps 727 mmHg 83%
    03:00 +4°C° 0 mm 1 mps 726 mmHg 83%
    04:00 +4°C° 0 mm 1 mps 726 mmHg 82%
    05:00 +4°C° 0 mm 0 mps 726 mmHg 78%
    06:00 +5°C° 0 mm 0 mps 726 mmHg 74%
    07:00 +6°C° 0 mm 0 mps 726 mmHg 71%
    08:00 +9°C° 0 mm 1 mps 726 mmHg 62%
    09:00 +12°C° 0 mm 1 mps 726 mmHg 53%
    10:00 +15°C° 0 mm 1 mps 726 mmHg 44%
    11:00 +16°C° 0 mm 1 mps 725 mmHg 41%
    12:00 +18°C° 0 mm 1 mps 725 mmHg 39%
    13:00 +20°C° 0 mm 1 mps 725 mmHg 36%
    14:00 +19°C° 0 mm 1 mps 724 mmHg 37%
    15:00 +19°C° 0 mm 1 mps 723 mmHg 39%
    16:00 +18°C° 0 mm 1 mps 723 mmHg 40%
    17:00 +15°C° 0 mm 1 mps 722 mmHg 49%
    18:00 +11°C° 0 mm 0 mps 722 mmHg 58%
    19:00 +9°C° 0 mm 0 mps 722 mmHg 67%
    20:00 +8°C° 0 mm 0 mps 722 mmHg 69%
    21:00 +9°C° 0 mm 1 mps 722 mmHg 71%
    22:00 +8°C° 0 mm 1 mps 721 mmHg 73%
    23:00 +8°C° 0 mm 1 mps 721 mmHg 73%
    Show more